sat.trackr.live / text

‹ back to catalog

CZ-6A R/B

NORAD 69091 · 2026-104U

ROCKET_BODY UNKNOWN UNKNOWN

§ Identity

Operator
Country
PRC
Launch date
2026-05-12
Launch site
TAISC
Launch vehicle
Mass (kg)
RCS (m²)

External: N2YO · Heavens-Above · Gunter

§ Orbital elements

Epoch: 2026-06-10T14:07:04.387872Z

Period
98.80 min
Inclination
89.0135°
Eccentricity
0.0092753
Mean motion
14.57460029 rev/d
Perigee alt
635.7 km
Apogee alt
767.1 km
Semi-major
7,079.5 km
B*
4.7202e-5
RAAN
342.2246°
Arg perigee
8.0387°
Mean anomaly
352.2283°
Rev number
425

§ Raw data

CZ-6A R/B1 69091U 26104U   26161.58824523  .00000245  00000+0  47202-4 0  99902 69091  89.0135 342.2246 0092753   8.0387 352.2283 14.57460029  4252

JSON: /api/v1/satellites/69091 · /tle

For live sub-satellite position, see the globe view (requires WebGL).

§ Visibility from observer

Set your observer location to see the next 7 days of passes ≥ 10°. The values pass through the URL so the page stays shareable.

No JS? Fill the form by hand. The geolocation button needs JavaScript.